This is the latest recevied weather packets stored in our database for station/object W4MLN-3. If no packets are shown the sender has not sent any weather packets the latest 1 day(s).
| Time | Temp. | Humidity | Pressure | Rain* | Wind** | Luminosity | Snow |
|---|---|---|---|---|---|---|---|
| 1778005204 | 20.56° C | 36% | 1015.3 hPa | 0 mm | 3.13 m/s, 170° | - | - |
| 1778004903 | 20.56° C | 38% | 1015.2 hPa | 0 mm | 2.68 m/s, 171° | - | - |
| 1778004603 | 20.56° C | 36% | 1015.3 hPa | 0 mm | 2.68 m/s, 182° | - | - |
| 1778004345 | 20.56° C | 36% | 1015.2 hPa | 0 mm | 2.24 m/s, 184° | - | - |
| 1778004025 | 20.56° C | 38% | 1015.3 hPa | 0 mm | 1.79 m/s, 175° | - | - |
| 1778003703 | 20° C | 39% | 1015.3 hPa | 0 mm | 2.68 m/s, 172° | - | - |
| 1778003404 | 20° C | 39% | 1015.6 hPa | 0 mm | 2.68 m/s, 175° | - | - |
| 1778003103 | 20° C | 39% | 1015.5 hPa | 0 mm | 2.68 m/s, 168° | - | - |
| 1778002804 | 20° C | 40% | 1015.5 hPa | 0 mm | 3.13 m/s, 166° | - | - |
| 1778002503 | 20° C | 38% | 1015.4 hPa | 0 mm | 3.13 m/s, 167° | - | - |
| 1778002203 | 20.56° C | 37% | 1015.4 hPa | 0 mm | 2.68 m/s, 165° | - | - |
| 1778001903 | 21.11° C | 38% | 1015.4 hPa | 0 mm | 2.24 m/s, 174° | - | - |
| 1778001603 | 21.11° C | 39% | 1015.3 hPa | 0 mm | 2.24 m/s, 183° | - | - |
| 1778001303 | 21.11° C | 37% | 1015.3 hPa | 0 mm | 2.24 m/s, 175° | - | - |
| 1778001024 | 20.56° C | 39% | 1015.4 hPa | 0 mm | 2.24 m/s, 194° | - | - |
| 1778000703 | 20.56° C | 40% | 1015.5 hPa | 0 mm | 2.24 m/s, 200° | - | - |
| 1778000403 | 21.11° C | 38% | 1015.4 hPa | 0 mm | 2.24 m/s, 176° | - | - |
| 1778000103 | 21.11° C | 41% | 1015.4 hPa | 0 mm | 1.79 m/s, 163° | - | - |
| 1777999803 | 20.56° C | 44% | 1015.4 hPa | 0 mm | 2.68 m/s, 156° | - | - |
| 1777999503 | 20.56° C | 44% | 1015.5 hPa | 0 mm | 3.13 m/s, 142° | - | - |
| 1777999203 | 21.11° C | 43% | 1015.6 hPa | 0 mm | 3.13 m/s, 127° | - | - |
| 1777998903 | 21.11° C | 43% | 1015.6 hPa | 0 mm | 2.68 m/s, 131° | - | - |
| 1777998603 | 21.11° C | 43% | 1015.7 hPa | 0 mm | 2.24 m/s, 128° | - | - |
| 1777998303 | 21.11° C | 42% | 1015.7 hPa | 0 mm | 1.79 m/s, 139° | - | - |
| 1777998003 | 21.11° C | 40% | 1015.8 hPa | 0 mm | 1.79 m/s, 170° | - | - |
* Rain latest hour (hover to see other rain measurements)
** Current wind speed in m/s (hover to see current wind gust speed)